Location: *
(50.3194°N, 7.1067°E)
Time: 05:03:34
(UTC+00:00)

Cosmos 2181 Rocket - Pass Details

Date: 22 September 2019
Orbit: 953 x 1014 km, 82.9° (Epoch: 16 October)

Event Time Altitude Azimuth Distance (km) Brightness Sun altitude
Rises 18:31:33 0° 167° (SSE) 3,662 6.7 -10.5°
Reaches altitude 10° 18:34:07 10° 161° (SSE) 2,728 6.0 -10.9°
Maximum altitude 18:40:03 47° 90° (E) 1,292 4.3 -11.8°
Drops below altitude 10° 18:46:07 10° 19° (NNE) 2,786 6.4 -12.7°
Sets 18:48:45 0° 14° (NNE) 3,747 7.1 -13.1°
